Zurück zum Katalog

FENGYUN 1C DEB

AktivSSO
NORAD 30331·DEBRIS·🇨🇳 China

Gestartet May 10, 1999 von Taiyuan Satellite Launch Center

Loading…

Nächste Überflüge (nächste 24 Stunden)

TLE

AktuellSource: Space-Track

Epoche: Sep 14, 2026, 13:47 UTC

1 30331U 99025AAS 26257.57467948  .00000154  00000-0  13348-3 0  9999
2 30331  98.9285 290.0365 0095723 326.9841 186.9223 13.98100246999739

Verfolge FENGYUN 1C DEB in Echtzeit mit AllMySat

Download on the App Store